Location: Unspecified
(0.0000°N, 0.0000°E)
Time: 13:55:09
(UTC+00:00)

THORAD DELTA 1 DEB - Pass Details

Date: 14 February 2026
Orbit: 1451 x 1739 km, 101.5° (Epoch: 4 March)

Event Time Altitude Azimuth Distance (km) Brightness Sun altitude
Rises 18:56:04 0° 128° (SE) 4,687 ? -10.2°
Reaches altitude 10° 19:00:31 10° 107° (ESE) 3,654 ? -11.3°
Maximum altitude 19:05:04 16° 74° (ENE) 3,188 ? -12.4°
Drops below altitude 10° 19:09:30 10° 40° (NE) 3,580 ? -13.5°
Sets 19:13:44 0° 20° (NNE) 4,540 ? -14.5°
